Tracking 19638 objects as of 20-May-2019
HD Live streaming from Space Station
objects crossing your sky now

BIRD GG

Track BIRD GG now!
10-day predictions
BIRD GG is classified as:


NORAD ID: 42821
Int'l Code: 1998-067MV
Perigee: 198.0 km
Apogee: 209.0 km
Inclination: 51.6 °
Period: 88.4 minutes
Semi major axis: 6574 km
RCS: Unknown
Launch date: November 20, 1998
Source: (GHA)
Launch site: TYURATAM MISSILE AND SPACE COMPLEX (TTMTR)

Uplink (MHz):
Downlink (MHz): 437.375
Beacon (MHz): 437.372
Mode: 1k2AFSK 9k6GMSK CW
Call sign: JG6YJP
Status: Inactive

aabbcc
Your satellite tracking list
Your tracking list is empty




NASA's NSSDC Master Catalog

Two Line Element Set (TLE):
1 42821U 98067MV  19140.14302687  .02548278  12067-4  61360-3 0  9998
2 42821  51.6103  56.9428 0008347 243.6814 116.3350 16.28590492107080
Source of the keplerian elements: AMSAT